This is the latest recevied weather packets stored in our database for station/object K2YYD-2. If no packets are shown the sender has not sent any weather packets the latest 1 day(s).
| Time | Temp. | Humidity | Pressure | Rain* | Wind** | Luminosity | Snow |
|---|---|---|---|---|---|---|---|
| 1778020059 | 20° C | 61% | 1005.6 hPa | 0 mm | 2.68 m/s, 187° | 165 W/m² | - |
| 1778019939 | 20° C | 61% | 1005.5 hPa | 0 mm | 2.68 m/s, 172° | 164 W/m² | - |
| 1778019819 | 20° C | 60% | 1005.5 hPa | 0 mm | 2.68 m/s, 183° | 167 W/m² | - |
| 1778019698 | 20° C | 60% | 1005.6 hPa | 0 mm | 2.68 m/s, 185° | 197 W/m² | - |
| 1778019578 | 20° C | 60% | 1005.6 hPa | 0 mm | 2.68 m/s, 193° | 217 W/m² | - |
| 1778019459 | 20° C | 60% | 1005.6 hPa | 0 mm | 2.68 m/s, 152° | 214 W/m² | - |
| 1778019336 | 20° C | 60% | 1005.5 hPa | 0 mm | 2.68 m/s, 194° | 219 W/m² | - |
| 1778019215 | 20° C | 60% | 1005.5 hPa | 0 mm | 2.68 m/s, 174° | 214 W/m² | - |
| 1778019095 | 20° C | 60% | 1005.5 hPa | 0 mm | 2.68 m/s, 80° | 214 W/m² | - |
| 1778018976 | 20° C | 60% | 1005.5 hPa | 0 mm | 2.68 m/s, 202° | 225 W/m² | - |
| 1778018856 | 20° C | 60% | 1005.6 hPa | 0 mm | 2.68 m/s, 187° | 248 W/m² | - |
| 1778018736 | 20.56° C | 60% | 1005.6 hPa | 0 mm | 2.68 m/s, 196° | 245 W/m² | - |
| 1778018616 | 20.56° C | 60% | 1005.6 hPa | 0 mm | 2.68 m/s, 124° | 258 W/m² | - |
| 1778018496 | 20.56° C | 60% | 1005.6 hPa | 0 mm | 2.68 m/s, 298° | 258 W/m² | - |
| 1778018376 | 20.56° C | 60% | 1005.5 hPa | 0 mm | 2.68 m/s, 152° | 274 W/m² | - |
| 1778018256 | 20.56° C | 59% | 1005.5 hPa | 0 mm | 2.68 m/s, 162° | 285 W/m² | - |
| 1778018136 | 20.56° C | 59% | 1005.5 hPa | 0 mm | 2.68 m/s, 190° | 292 W/m² | - |
| 1778018016 | 20.56° C | 60% | 1005.6 hPa | 0 mm | 2.68 m/s, 194° | 306 W/m² | - |
| 1778017896 | 20.56° C | 60% | 1005.6 hPa | 0 mm | 2.68 m/s, 185° | 265 W/m² | - |
| 1778017777 | 20.56° C | 59% | 1005.7 hPa | 0 mm | 2.68 m/s, 151° | 270 W/m² | - |
| 1778017656 | 20.56° C | 59% | 1005.6 hPa | 0 mm | 2.68 m/s, 183° | 309 W/m² | - |
| 1778017536 | 20.56° C | 60% | 1005.5 hPa | 0 mm | 2.68 m/s, 177° | 305 W/m² | - |
| 1778017417 | 20.56° C | 59% | 1005.5 hPa | 0 mm | 2.68 m/s, 182° | 322 W/m² | - |
| 1778017296 | 20.56° C | 60% | 1005.6 hPa | 0 mm | 2.24 m/s, 182° | 344 W/m² | - |
| 1778017176 | 20.56° C | 60% | 1005.6 hPa | 0 mm | 2.24 m/s, 184° | 358 W/m² | - |
* Rain latest hour (hover to see other rain measurements)
** Current wind speed in m/s (hover to see current wind gust speed)